Regional Weather Roundup
Issued by NWS

Home | Current Version | Previous Version | Graphics & Text | Print | Product List | Glossary On
Versions: 1 2 3 4 5 6 7 8 9 10 11 12 13 14 15 16 17 18 19 20 21 22 23 24 25 26 27 28 29 30 31 32 33 34 35 36 37 38 39 40 41 42 43 44 45 46 47 48 49 50
000
ASUS44 KMEG 251900
RWRTN
TENNESSEE HOURLY STATE WEATHER ROUNDUP
NATIONAL WEATHER SERVICE MEMPHIS TN
200 PM CDT MON MAY 25 2015

TNZ002-004-019-021-049-052-054-088>092-252000-
WEST TENNESSEE

CITY           SKY/WX    TMP DP  RH WIND       PRES   REMARKS
MEMPHIS INTL   CLOUDY    81  69  67 S7        30.07F
NWS MEMPHIS      N/A     79 N/A N/A MISG        N/A
JACKSON        CLOUDY    75  67  76 S8        30.10F
DYERSBURG      CLOUDY    75  57  53 SE8       30.09S
PARIS          CLOUDY    70  66  88 SE10      30.11F
LEXINGTON      MOSUNNY   72  68  88 VRB7      30.11F
$$

TNZ008-025-027-028-033-062-065-066-252000-
NORTH MIDDLE TENNESSEE

CITY           SKY/WX    TMP DP  RH WIND       PRES   REMARKS
NASHVILLE      CLOUDY    71  68  90 SW7G23    30.15S
CLARKSVILLE    CLOUDY    69  66  90 SE9       30.12F
COOKEVILLE     MOSUNNY   77  64  65 S8        30.19F
CROSSVILLE     PTSUNNY   75  61  61 S8        30.25F
$$

TNZ061-075-076-078-094-096-097-252000-
SOUTH MIDDLE TENNESSEE

CITY           SKY/WX    TMP DP  RH WIND       PRES   REMARKS
FAYETTEVILLE   MOSUNNY  N/A N/A N/A MISG      30.18F
TULLAHOMA      PTSUNNY   72  66  83 CALM      30.20F
WINCHESTER     SUNNY     79  66  65 S8        30.18F
MCMINNVILLE    PTSUNNY   77  66  69 S8        30.19F
COLUMBIA       PTSUNNY   70  68  94 S8        30.14F
SHELBYVILLE    CLOUDY    68  66  94 SW8       30.21R
$$

TNZ017-018-042-046-047-252000-
NORTHEAST TENNESSEE

CITY           SKY/WX    TMP DP  RH WIND       PRES   REMARKS
TRI CITIES     MOSUNNY   83  54  36 CALM      30.23F
ELIZABETHTON   CLEAR     82  55  39 VRB3      30.23F
$$

TNZ012-013-036-069-073-074-252000-
CENTRAL EAST TENNESSEE

CITY           SKY/WX    TMP DP  RH WIND       PRES   REMARKS
KNOXVILLE      CLOUDY    85  58  39 S10       30.20F
OAK RIDGE      PTSUNNY   83  60  45 SW8G17    30.22F
GATLINBURG       N/A     90  57  33 E8        30.19F
$$

TNZ083-085-099-252000-
SOUTHEAST TENNESSEE

CITY           SKY/WX    TMP DP  RH WIND       PRES   REMARKS
CHATTANOOGA    CLOUDY    79  64  60 SE9       30.20F
$$

SKY/WX REPORTED AS FAIR MEANS FEW OR NO CLOUDS BELOW
12 THOUSAND FEET.




USA.gov is the U.S. government's official web portal to all federal, state and local government web resources and services.